Ceredo, WV

6:21 AM EST on February 08, 2016 (GMT -0500)
Tri-State / Ferguson

Weather History for KHTS - April, 2013

Change the Weather History Date:

Monday, April 8, 2013

  Actual Average Record
Temperature  
Mean Temperature 65 °F 54 °F  
Max Temperature 78 °F 66 °F 90 °F (1893)
Min Temperature 51 °F 42 °F 25 °F (1972)
Degree Days  
Heating Degree Days 0 12  
Month to date heating degree days 118 103  
Since 1 July heating degree days 4294 4200  
Cooling Degree Days 0 1  
Month to date cooling degree days 2 7  
Year to date cooling degree days 2 12  
Growing Degree Days 14 (Base 50)    
Moisture  
Dew Point 46 °F    
Average Humidity 57    
Maximum Humidity 77    
Minimum Humidity 36    
Precipitation  
Precipitation 0.00 in 0.11 in 1.12 in (1957)
Month to date precipitation 0.05 0.89  
Year to date precipitation 9.62 10.83  
Snow  
Snow 0.00 in - - ()
Month to date snowfall 0.0  
Since 1 September snowfall 12.4  
Snow Depth 0.00 in    
Sea Level Pressure  
Sea Level Pressure 29.98 in    
Wind  
Wind Speed 5 mph (SSW)    
Max Wind Speed 18 mph    
Max Gust Speed 26 mph    
Visibility 10 miles    
Events      
T = Trace of Precipitation, MM = Missing Value Source: NWS Daily Summary

Daily Weather History Graph

Daily Weather History Graph

Search for Another Location

Airport or City:

Trip Planner

Search our weather history database for the weather conditions in past years. The results will help you decide how hot, cold, wet, or windy it might be!

Date:

Astronomy

Apr. 08, 2013 Rise Set
Actual Time 7:04 AM EDT 8:00 PM EDT
Civil Twilight 6:37 AM EDT 8:27 PM EDT
Nautical Twilight 6:05 AM EDT 8:59 PM EDT
Astronomical Twilight 5:32 AM EDT 9:32 PM EDT
Moon 5:52 AM EDT 6:34 PM EDT
Length of Visible Light 13h 50m
Length of Day
12h 56m
Waning Crescent, 3% of the Moon is Illuminated
Apr 8
Waning Crescent
Apr 10
New
Apr 18
First Quarter
Apr 25
Full
May 2
Last Quarter

Hourly Weather History & Observations

Time (EDT) Temp. Dew Point Humidity Pressure Visibility Wind Dir Wind Speed Gust Speed Precip Events Conditions
12:51 AM 55.9 °F 45.0 °F 67% 30.00 in 10.0 mi Calm Calm - N/A   Clear
1:51 AM 55.9 °F 46.0 °F 69% 30.01 in 10.0 mi Calm Calm - N/A   Overcast
2:51 AM 55.0 °F 45.0 °F 69% 30.01 in 10.0 mi Calm Calm - N/A   Overcast
3:51 AM 54.0 °F 45.0 °F 72% 30.00 in 10.0 mi Calm Calm - N/A   Overcast
4:51 AM 53.1 °F 44.1 °F 71% 29.99 in 10.0 mi Calm Calm - N/A   Scattered Clouds
5:51 AM 52.0 °F 44.1 °F 74% 29.99 in 10.0 mi Calm Calm - N/A   Mostly Cloudy
6:51 AM 53.1 °F 42.1 °F 66% 30.00 in 10.0 mi Calm Calm - N/A   Scattered Clouds
7:51 AM 54.0 °F 41.0 °F 62% 30.02 in 10.0 mi Calm Calm - N/A   Partly Cloudy
8:51 AM 61.0 °F 43.0 °F 52% 30.02 in 10.0 mi SSW 5.8 mph - N/A   Clear
9:51 AM 64.9 °F 44.1 °F 47% 30.01 in 10.0 mi SSW 8.1 mph - N/A   Partly Cloudy
10:51 AM 66.9 °F 45.0 °F 45% 30.01 in 10.0 mi South 9.2 mph - N/A   Overcast
11:51 AM 75.0 °F 48.9 °F 40% 29.99 in 10.0 mi SW 10.4 mph 21.9 mph N/A   Mostly Cloudy
12:51 PM 72.0 °F 48.0 °F 43% 29.99 in 10.0 mi SSW 10.4 mph 18.4 mph N/A   Overcast
1:51 PM 75.9 °F 50.0 °F 40% 29.96 in 10.0 mi SSW 12.7 mph 19.6 mph N/A   Mostly Cloudy
2:51 PM 75.0 °F 48.0 °F 38% 29.95 in 10.0 mi SW 8.1 mph 19.6 mph N/A   Overcast
3:51 PM 75.9 °F 48.0 °F 37% 29.94 in 10.0 mi SSW 10.4 mph 17.3 mph N/A   Overcast
4:51 PM 75.9 °F 46.9 °F 36% 29.94 in 10.0 mi SW 11.5 mph 21.9 mph N/A   Overcast
5:51 PM 75.9 °F 48.0 °F 37% 29.93 in 10.0 mi SW 6.9 mph - N/A   Overcast
6:51 PM 75.0 °F 48.0 °F 38% 29.95 in 10.0 mi SSW 5.8 mph - N/A   Overcast
7:51 PM 73.9 °F 48.0 °F 40% 29.93 in 10.0 mi South 6.9 mph - N/A   Partly Cloudy
8:51 PM 72.0 °F 48.0 °F 43% 29.96 in 10.0 mi Calm Calm - N/A   Clear
9:51 PM 70.0 °F 48.0 °F 46% 29.98 in 10.0 mi SSW 3.5 mph - N/A   Partly Cloudy
10:51 PM 69.1 °F 48.9 °F 49% 30.00 in 10.0 mi SW 3.5 mph - N/A   Clear
11:51 PM 68.0 °F 48.0 °F 49% 30.00 in 10.0 mi Calm Calm - N/A   Clear